Stündliche Wetter Abella de la Conca

Heute, 30 Juli, Freitag

Zeit Temperatur Niederschläge Wind Luftdruck Luftfeuchtigkeit
00:00 +19°C° 0 mm 1 m/S 655 mmHg 64%
01:00 +18°C° 0 mm 1 m/S 655 mmHg 65%
02:00 +18°C° 0 mm 1 m/S 655 mmHg 67%
03:00 +16°C° 0 mm 1 m/S 655 mmHg 68%
04:00 +18°C° 0 mm 1 m/S 655 mmHg 66%
05:00 +18°C° 0 mm 1 m/S 655 mmHg 64%
06:00 +19°C° 0 mm 1 m/S 655 mmHg 62%
07:00 +21°C° 0 mm 1 m/S 656 mmHg 54%
08:00 +24°C° 0 mm 2 m/S 656 mmHg 47%
09:00 +26°C° 0 mm 2 m/S 657 mmHg 39%
10:00 +27°C° 0 mm 3 m/S 657 mmHg 36%
11:00 +29°C° 0 mm 4 m/S 657 mmHg 32%
12:00 +30°C° 0 mm 4 m/S 657 mmHg 29%
13:00 +30°C° 0 mm 5 m/S 657 mmHg 27%
14:00 +30°C° 0 mm 5 m/S 657 mmHg 24%
15:00 +32°C° 0 mm 5 m/S 656 mmHg 22%
16:00 +30°C° 0 mm 4 m/S 656 mmHg 24%
17:00 +29°C° 0 mm 4 m/S 656 mmHg 26%
18:00 +28°C° 0 mm 3 m/S 656 mmHg 28%
19:00 +25°C° 0.2 mm 3 m/S 655 mmHg 42%
20:00 +21°C° 0.2 mm 2 m/S 655 mmHg 57%
21:00 +17°C° 0.2 mm 2 m/S 655 mmHg 72%
22:00 +17°C° 0.5 mm 2 m/S 655 mmHg 76%
23:00 +16°C° 0.5 mm 2 m/S 655 mmHg 81%

Morgen, 31 Juli, Samstag

Zeit Temperatur Niederschläge Wind Luftdruck Luftfeuchtigkeit
00:00 +15°C° 0.5 mm 1 m/S 655 mmHg 86%
01:00 +15°C° 0.6 mm 1 m/S 654 mmHg 87%
02:00 +15°C° 0.6 mm 1 m/S 654 mmHg 88%
03:00 +15°C° 0.6 mm 1 m/S 654 mmHg 89%
04:00 +15°C° 0.2 mm 1 m/S 654 mmHg 88%
05:00 +15°C° 0.2 mm 1 m/S 654 mmHg 87%
06:00 +15°C° 0.2 mm 1 m/S 654 mmHg 86%
07:00 +16°C° 0.1 mm 1 m/S 654 mmHg 84%
08:00 +16°C° 0.1 mm 1 m/S 654 mmHg 83%
09:00 +18°C° 0.1 mm 1 m/S 654 mmHg 81%
10:00 +18°C° 0.5 mm 2 m/S 654 mmHg 78%
11:00 +18°C° 0.5 mm 2 m/S 654 mmHg 74%
12:00 +19°C° 0.5 mm 2 m/S 654 mmHg 71%
13:00 +20°C° 0.4 mm 2 m/S 654 mmHg 66%
14:00 +20°C° 0.4 mm 2 m/S 654 mmHg 60%
15:00 +21°C° 0.4 mm 2 m/S 654 mmHg 55%
16:00 +20°C° 0.6 mm 2 m/S 653 mmHg 58%
17:00 +20°C° 0.6 mm 2 m/S 653 mmHg 61%
18:00 +19°C° 0.6 mm 2 m/S 652 mmHg 64%
19:00 +17°C° 3.3 mm 2 m/S 652 mmHg 71%
20:00 +15°C° 3.3 mm 2 m/S 652 mmHg 78%
21:00 +12°C° 3.3 mm 2 m/S 652 mmHg 86%
22:00 +12°C° 0.1 mm 2 m/S 652 mmHg 86%
23:00 +12°C° 0.1 mm 2 m/S 652 mmHg 86%

übermorgen, 1 August, Sonntag

Zeit Temperatur Niederschläge Wind Luftdruck Luftfeuchtigkeit
00:00 +10°C° 0.1 mm 2 m/S 652 mmHg 86%
01:00 +10°C° 0 mm 2 m/S 652 mmHg 87%
02:00 +9°C° 0 mm 2 m/S 652 mmHg 88%
03:00 +10°C° 0 mm 1 m/S 652 mmHg 89%
04:00 +10°C° 0 mm 1 m/S 652 mmHg 87%
05:00 +11°C° 0 mm 1 m/S 653 mmHg 86%
06:00 +11°C° 0 mm 1 m/S 653 mmHg 84%
07:00 +13°C° 0 mm 1 m/S 654 mmHg 76%
08:00 +14°C° 0 mm 1 m/S 654 mmHg 68%
09:00 +16°C° 0 mm 1 m/S 655 mmHg 60%
10:00 +18°C° 0 mm 1 m/S 655 mmHg 56%
11:00 +18°C° 0 mm 2 m/S 655 mmHg 51%
12:00 +19°C° 0 mm 2 m/S 656 mmHg 46%
13:00 +20°C° 0 mm 2 m/S 656 mmHg 44%
14:00 +20°C° 0 mm 2 m/S 656 mmHg 42%
15:00 +20°C° 0 mm 2 m/S 656 mmHg 40%
16:00 +21°C° 0 mm 1 m/S 655 mmHg 42%
17:00 +20°C° 0 mm 1 m/S 655 mmHg 44%
18:00 +20°C° 0 mm 1 m/S 655 mmHg 46%
19:00 +18°C° 0 mm 1 m/S 656 mmHg 54%
20:00 +15°C° 0 mm 2 m/S 656 mmHg 61%
21:00 +13°C° 0 mm 2 m/S 656 mmHg 69%
22:00 +13°C° 0 mm 2 m/S 656 mmHg 74%
23:00 +12°C° 0 mm 1 m/S 656 mmHg 79%

2 August, Montag

Zeit Temperatur Niederschläge Wind Luftdruck Luftfeuchtigkeit
00:00 +11°C° 0 mm 1 m/S 656 mmHg 83%
01:00 +11°C° 0 mm 1 m/S 656 mmHg 84%
02:00 +11°C° 0 mm 1 m/S 656 mmHg 85%
03:00 +11°C° 0 mm 1 m/S 656 mmHg 86%
04:00 +11°C° 0 mm 1 m/S 656 mmHg 84%
05:00 +12°C° 0 mm 1 m/S 656 mmHg 82%
06:00 +12°C° 0 mm 1 m/S 656 mmHg 80%
07:00 +14°C° 0 mm 1 m/S 657 mmHg 71%
08:00 +18°C° 0 mm 1 m/S 658 mmHg 61%
09:00 +20°C° 0 mm 1 m/S 658 mmHg 51%
10:00 +20°C° 0 mm 2 m/S 658 mmHg 47%
11:00 +21°C° 0 mm 2 m/S 659 mmHg 43%
12:00 +24°C° 0 mm 2 m/S 659 mmHg 38%
13:00 +24°C° 0 mm 2 m/S 659 mmHg 39%
14:00 +24°C° 0 mm 2 m/S 659 mmHg 40%
15:00 +24°C° 0 mm 2 m/S 658 mmHg 40%
16:00 +23°C° 0.1 mm 2 m/S 658 mmHg 46%
17:00 +21°C° 0.1 mm 2 m/S 658 mmHg 52%
18:00 +19°C° 0.1 mm 2 m/S 657 mmHg 59%
19:00 +18°C° 0.9 mm 2 m/S 657 mmHg 68%
20:00 +16°C° 0.9 mm 2 m/S 657 mmHg 77%
21:00 +15°C° 0.9 mm 1 m/S 658 mmHg 86%
22:00 +14°C° 0.1 mm 1 m/S 657 mmHg 86%
23:00 +14°C° 0.1 mm 1 m/S 657 mmHg 85%

3 August, Dienstag

Zeit Temperatur Niederschläge Wind Luftdruck Luftfeuchtigkeit
00:00 +13°C° 0.1 mm 1 m/S 657 mmHg 85%
01:00 +13°C° 0 mm 1 m/S 657 mmHg 84%
02:00 +13°C° 0 mm 1 m/S 657 mmHg 83%
03:00 +13°C° 0 mm 1 m/S 657 mmHg 81%
04:00 +13°C° 0 mm 1 m/S 657 mmHg 79%
05:00 +14°C° 0 mm 1 m/S 657 mmHg 77%
06:00 +14°C° 0 mm 1 m/S 657 mmHg 75%
07:00 +18°C° 0 mm 1 m/S 658 mmHg 66%
08:00 +20°C° 0 mm 1 m/S 659 mmHg 57%
09:00 +23°C° 0 mm 1 m/S 660 mmHg 47%
10:00 +24°C° 0 mm 2 m/S 660 mmHg 43%
11:00 +25°C° 0 mm 2 m/S 660 mmHg 38%
12:00 +27°C° 0 mm 3 m/S 660 mmHg 33%
13:00 +27°C° 0 mm 3 m/S 660 mmHg 31%
14:00 +28°C° 0 mm 3 m/S 659 mmHg 30%
15:00 +28°C° 0 mm 3 m/S 659 mmHg 28%
16:00 +27°C° 0 mm 3 m/S 659 mmHg 31%
17:00 +26°C° 0 mm 2 m/S 658 mmHg 35%
18:00 +25°C° 0 mm 1 m/S 658 mmHg 38%
19:00 +23°C° 0 mm 1 m/S 658 mmHg 44%
20:00 +21°C° 0 mm 1 m/S 658 mmHg 50%
21:00 +18°C° 0 mm 2 m/S 657 mmHg 56%
22:00 +17°C° 0 mm 2 m/S 657 mmHg 59%
23:00 +17°C° 0 mm 2 m/S 657 mmHg 62%

4 August, Mittwoch

Zeit Temperatur Niederschläge Wind Luftdruck Luftfeuchtigkeit
00:00 +16°C° 0 mm 2 m/S 657 mmHg 65%
01:00 +16°C° 0 mm 2 m/S 657 mmHg 64%
02:00 +16°C° 0 mm 1 m/S 657 mmHg 64%
03:00 +16°C° 0 mm 1 m/S 657 mmHg 64%
04:00 +16°C° 0 mm 1 m/S 657 mmHg 64%
05:00 +18°C° 0 mm 1 m/S 657 mmHg 64%
06:00 +16°C° 0 mm 0 m/S 657 mmHg 64%
07:00 +19°C° 0.1 mm 1 m/S 658 mmHg 63%
08:00 +19°C° 0.1 mm 1 m/S 658 mmHg 62%
09:00 +20°C° 0.1 mm 1 m/S 659 mmHg 61%
10:00 +21°C° 0.2 mm 1 m/S 659 mmHg 59%
11:00 +21°C° 0.2 mm 1 m/S 659 mmHg 58%
12:00 +21°C° 0.2 mm 2 m/S 659 mmHg 56%
13:00 +21°C° 0.3 mm 2 m/S 659 mmHg 53%
14:00 +23°C° 0.3 mm 2 m/S 658 mmHg 51%
15:00 +24°C° 0.3 mm 2 m/S 658 mmHg 49%
16:00 +23°C° 0.2 mm 2 m/S 658 mmHg 52%
17:00 +23°C° 0.2 mm 2 m/S 658 mmHg 54%
18:00 +22°C° 0.2 mm 1 m/S 658 mmHg 57%
19:00 +20°C° 0 mm 1 m/S 658 mmHg 65%
20:00 +19°C° 0 mm 1 m/S 657 mmHg 73%
21:00 +16°C° 0 mm 1 m/S 657 mmHg 82%
22:00 +16°C° 0 mm 1 m/S 657 mmHg 83%
23:00 +15°C° 0 mm 1 m/S 657 mmHg 84%
Mehr zeigen

Wir brauchen deine Erlaubnis

Meteoprog und unser Service Anbieter werden persönliche Daten aufbewahren, so wie Cookies, Geräte Bezeichnung oder ähnliche Technologien von deinem Gerät und Prozess, so wie Persönliche Daten Inhalte und Werbungen, genauso wie social Media und den Verkehr zu analysieren.

  • Aufbewahrung und/oder Zugang zu deiner Geräte Informationen.

    Cookies, Geräte Bezeichnung oder andere Informationen, können aufbewahrt oder Zugang zu deinem Gerät erhalten, für den Grund, der oben angegeben wird.

  • Personalisierte Werbung und Inhalte, Messungen, Einblick in das Publikum und Produkt Entwicklung.

    Werbungen und Inhalte können personalisiert werden, basierend auf ein Profil. Mehr Daten können besser personalisierte Werbungen und Inhalte hinzufügen. Werbung und Inhalte können gezeigt und gemessen werden. Einblicke über das Publikum, welche die Werbung gesehen haben und den Inhalt, können abgeleitet werden. So wie Daten können genutzt werden, um es zu verbessern oder die Benutzer Erfahrung zu verbessern das System und die Software.

Wenn du “Ich stimme zu” klickst, erlaubst du uns, die Cookies zu benutzen die Geräte Bezeichnung, den Web oder ähnliche Technologien zu benutzen. Deine Settings, können in deinem Gerät bei deinem Browser geändert werden.

Für den bestimmten Zweck, berechtigten Interessen beruhen darauf, mehr als auf den Inhalt. Du kannst mehr darüber in unseren Privaten und Cookie Politik lesen.